User: anonymous   Login
Location: Academy at Carrie F Thomas
(32.8490°N, 97.2053°W)
Time: 03:17:36
(UTC+00:00)
Language:

Cosmos 1538 Rocket - Orbit

View from above orbital plane
View from above orbital plane
View from above satellite
View from above satellite

Ground track
Ground track

The orbit data is extracted from the following two-line orbital elements,

1 14760U 84019B   22144.91394706  .00000255  00000-0  96352-4 0  9993
2 14760  74.0455  54.5490 0028181 193.6940 166.3451 14.35980622  2125
Epoch (UTC): 24 May 2022 21:56:05
Eccentricity: 0.0028181
inclination: 74.0455°
perigee height: 751 km
apogee height: 792 km
right ascension of ascending node: 54.5490°
argument of perigee: 193.6940°
revolutions per day: 14.35980622
mean anomaly at epoch: 166.3451°
orbit number at epoch: 212

The dashed part of the orbit path shows where the satellite is in the earth's shadow,  

DLR